TimeCST,TemperatureF,Dew PointF,Humidity,Sea Level PressureIn,VisibilityMPH,Wind Direction,Wind SpeedMPH,Gust SpeedMPH,PrecipitationIn,Events,Conditions,WindDirDegrees,DateUTC
12:25 AM,25.0,14.0,63,30.21,9.0,NW,15.0,23.0,0.00,,Overcast,310,2014-02-26 06:25:00
12:54 AM,23.0,17.1,78,30.25,3.0,NNW,12.7,-,0.00,Snow,Light Snow,340,2014-02-26 06:54:00
1:04 AM,23.0,16.0,74,30.23,4.0,NNW,13.8,27.6,0.00,Snow,Light Snow,340,2014-02-26 07:04:00
1:12 AM,23.0,15.1,72,30.24,5.0,NNW,17.3,27.6,0.00,Snow,Light Snow,330,2014-02-26 07:12:00
1:54 AM,21.0,5.0,50,30.26,10.0,NNW,13.8,23.0,0.00,,Overcast,330,2014-02-26 07:54:00
2:54 AM,19.0,3.0,50,30.28,10.0,NNW,11.5,-,N/A,,Overcast,340,2014-02-26 08:54:00
3:54 AM,18.0,6.1,60,30.28,10.0,North,11.5,18.4,N/A,,Partly Cloudy,350,2014-02-26 09:54:00
4:54 AM,16.0,3.0,57,30.29,10.0,NNW,11.5,21.9,N/A,,Partly Cloudy,340,2014-02-26 10:54:00
5:54 AM,14.0,1.9,59,30.31,10.0,NNW,15.0,-,N/A,,Clear,330,2014-02-26 11:54:00
6:54 AM,14.0,1.9,59,30.31,10.0,NNW,10.4,-,N/A,,Partly Cloudy,340,2014-02-26 12:54:00
7:01 AM,14.0,1.9,59,30.29,10.0,NNW,9.2,-,N/A,,Mostly Cloudy,340,2014-02-26 13:01:00
7:54 AM,16.0,5.0,62,30.32,10.0,North,11.5,-,N/A,,Mostly Cloudy,10,2014-02-26 13:54:00
8:06 AM,15.1,3.9,61,30.31,10.0,NNW,12.7,-,N/A,,Overcast,330,2014-02-26 14:06:00
8:54 AM,16.0,3.9,59,30.31,10.0,North,8.1,-,N/A,,Scattered Clouds,360,2014-02-26 14:54:00
9:10 AM,19.0,6.1,57,30.29,10.0,North,9.2,-,N/A,,Mostly Cloudy,10,2014-02-26 15:10:00
9:54 AM,19.0,5.0,54,30.30,10.0,Variable,5.8,-,0.00,,Mostly Cloudy,0,2014-02-26 15:54:00
10:54 AM,19.0,6.1,57,30.29,10.0,North,9.2,18.4,N/A,,Mostly Cloudy,350,2014-02-26 16:54:00
11:54 AM,21.0,5.0,50,30.26,10.0,NNW,4.6,-,N/A,,Partly Cloudy,330,2014-02-26 17:54:00
12:54 PM,21.9,3.9,46,30.21,10.0,NNW,8.1,-,N/A,,Clear,330,2014-02-26 18:54:00
1:54 PM,23.0,3.9,44,30.16,10.0,West,5.8,-,N/A,,Clear,280,2014-02-26 19:54:00
2:54 PM,25.0,3.9,41,30.13,10.0,WNW,10.4,-,N/A,,Clear,290,2014-02-26 20:54:00
3:54 PM,26.1,3.9,39,30.11,10.0,NW,12.7,-,N/A,,Clear,310,2014-02-26 21:54:00
4:54 PM,25.0,3.9,41,30.09,10.0,North,-9999.0,-,N/A,,Clear,0,2014-02-26 22:54:00
5:54 PM,21.9,5.0,48,30.08,10.0,West,6.9,-,N/A,,Clear,270,2014-02-26 23:54:00
6:54 PM,19.9,5.0,52,30.06,10.0,West,4.6,-,N/A,,Clear,260,2014-02-27 00:54:00
7:54 PM,18.0,7.0,62,30.04,10.0,SW,4.6,-,N/A,,Clear,230,2014-02-27 01:54:00
8:54 PM,17.1,6.1,62,30.03,10.0,SW,4.6,-,N/A,,Clear,230,2014-02-27 02:54:00
9:54 PM,18.0,7.0,62,30.02,10.0,WSW,5.8,-,N/A,,Clear,240,2014-02-27 03:54:00
10:54 PM,16.0,8.1,71,30.03,10.0,WSW,5.8,-,N/A,,Clear,240,2014-02-27 04:54:00
11:54 PM,16.0,8.1,71,30.01,10.0,WSW,5.8,-,N/A,,Clear,240,2014-02-27 05:54:00